www.pogodaiklimat.ru
Время
и дата
11:53 30.12
12:44 30.12
12:47 30.12
12:53 30.12
13:13 30.12
13:53 30.12
14:53 30.12
15:53 30.12
16:53 30.12
17:53 30.12
18:48 30.12
18:53 30.12
19:12 30.12
19:53 30.12
20:38 30.12
20:53 30.12
21:19 30.12
21:53 30.12
22:53 30.12
23:24 30.12
23:53 30.12
00:53 31.12
01:42 31.12
01:53 31.12
02:34 31.12
02:53 31.12
03:10 31.12
03:42 31.12
03:53 31.12
04:03 31.12
04:37 31.12
04:53 31.12
05:53 31.12
06:33 31.12
06:53 31.12
07:53 31.12
08:53 31.12
09:53 31.12
10:03 31.12
10:11 31.12
10:53 31.12
11:53 31.12
12:53 31.12
13:53 31.12
14:53 31.12
15:53 31.12
16:53 31.12
17:53 31.12
Ветер
(напр.,м/с)
Видим. Явления Облачность Т
(С)
Тd
(С)
f
(%)
Тe
(С)
Тes
(С)
Комфортность P
(гПа)
Po
(гПа)
Тmin
(С)
Tmax
(С)
R
(мм)
R24
(мм)
S
(см)
Ю 1 10 км дымка 10/10 120 м +22.2 +20.0 87 +28 +28 душно 1019.9 1018.9
штиль 0 10 км дымка 5/5 120 м +23.0 +21.0 89 +31 +36 очень
душно
1017.9
Ю 2 10 км дымка 5/5 120 м +23.0 +21.0 89 +31 +34 очень
душно
1017.9
Ю 2 11 км 8/8 120 м +23.9 +20.6 82 +30 +31 очень
душно
1018.6 1017.5
Ю 2 14 км 5/5 150 м +24.4 +20.6 79 +30 +33 очень
душно
1017.2
Ю 2 16 км 2/2 450 м +25.6 +21.1 76 +32 +37 очень
душно
1017.7 1016.5
Ю 2 16 км 2/2 540 м +25.6 +21.1 76 +32 +36 очень
душно
1017.2 1016.2
Ю 2 16 км 2/2 540 м +25.0 +20.6 77 +31 +34 очень
душно
1017.2 1016.2
Ю 1 16 км 2/2 540 м +25.0 +20.6 77 +31 +33 очень
душно
1017.2 1016.2
Ю 1 14 км 2/2 450 м +23.3 +20.6 85 +31 +31 очень
душно
1017.4 1016.5
Ю 1 13 км 8/8 360 м +23.0 +21.0 89 +31 +31 очень
душно
1016.9
Ю 2 14 км 8/8 300 м +22.8 +21.1 90 +30 +30 очень
душно
1018.0 1016.9 +22.8 +26.1
ЮЗ 2 13 км 10/10 240 м +22.8 +21.1 90 +30 +30 очень
душно
1017.2
Ю 1 13 км 8/8 270 м +22.8 +20.6 87 +30 +30 очень
душно
1018.5 1017.5
Ю 1 11 км 10/10 330 м +22.8 +21.1 90 +30 +30 очень
душно
1017.9
Ю 1 11 км 10/10 330 м +23.3 +21.1 87 +31 +31 очень
душно
1019.0 1018.2
Ю 1 14 км 2/2 390 м +22.8 +20.6 87 +30 +30 очень
душно
1018.2
штиль 0 13 км ясно +23.3 +20.6 85 +31 +31 очень
душно
1019.2 1018.2
штиль 0 11 км 2/2 240 м +22.8 +20.6 87 +30 +30 очень
душно
1019.1 1018.2
ЮВ 1 13 км 8/8 330 м +22.8 +20.6 87 +30 +30 очень
душно
1017.9
Ю 1 13 км 10/10 330 м +22.8 +21.1 90 +30 +30 очень
душно
1018.8 1017.9
Ю 1 13 км 10/10 420 м +22.8 +21.1 90 +30 +30 очень
душно
1018.6 1017.5 +22.8 +24.4
Ю 1 11 км 5/5 420 м +22.2 +21.1 93 +29 +29 очень
душно
1017.5
ЮВ 1 13 км ясно +22.2 +21.1 93 +29 +29 очень
душно
1018.3 1017.2
ЮВ 1 13 км 8/8 330 м +22.2 +20.6 91 +29 +29 очень
душно
1017.2
ЮВ 1 11 км 8/8 330 м +22.2 +21.1 93 +29 +29 очень
душно
1017.9 1016.9
ЮВ 1 13 км 5/5 300 м +22.2 +21.1 93 +29 +29 очень
душно
1016.9
Ю 1 13 км 5/5 180 м +22.2 +21.1 93 +29 +29 очень
душно
1016.5
Ю 1 11 км 5/5 180 м +22.2 +20.6 91 +29 +29 очень
душно
1017.5 1016.5
Ю 1 11 км 8/8 180 м +22.2 +20.6 91 +29 +29 очень
душно
1016.5
Ю 1 10 км дымка 10/10 120 м +22.2 +20.6 91 +29 +29 очень
душно
1016.5
Ю 2 13 км 10/10 120 м +22.2 +21.1 93 +29 +29 очень
душно
1017.6 1016.5
Ю 1 8 км дымка 10/10 120 м +21.7 +20.6 93 +27 +27 душно 1018.0 1016.9
Ю 1 14 км 10/10 150 м +22.2 +20.6 91 +29 +29 очень
душно
1017.5
Ю 2 16 км 10/10 180 м +22.2 +20.6 91 +29 +29 очень
душно
1018.5 1017.5 +21.7 +22.8
Ю 1 16 км 10/10 240 м +22.2 +20.0 87 +28 +28 душно 1019.2 1018.2
Ю 1 16 км 10/10 210 м +22.8 +20.6 87 +30 +30 очень
душно
1020.0 1018.9
Ю 1 16 км 8/8 270 м +23.9 +20.6 82 +30 +30 очень
душно
1020.6 1019.6
Ю 1 16 км 8/8 м +24.4 +21.1 82 +31 +32 очень
душно
1019.6
Ю 1 16 км 8/8 м +25.0 +21.1 79 +32 +32 очень
душно
1019.6
ЮЗ 2 16 км 2/2 450 м +24.4 +20.6 79 +30 +33 очень
душно
1020.5 1019.6
ЮЗ 1 16 км 2/2 540 м +25.6 +21.1 76 +32 +37 очень
душно
1019.7 1018.6
Ю 2 16 км 2/2 900 м +27.2 +20.0 65 +33 +38 очень
душно
1018.7 1017.5 +22.2 +27.8
Ю 2 16 км 2/2 900 м +27.8 +19.4 60 +33 +37 очень
душно
1017.8 1016.9
Ю 1 16 км 2/2 1050 м +27.8 +19.4 60 +33 +38 очень
душно
1017.6 1016.5
Ю 2 16 км 2/2 1050 м +27.2 +19.4 62 +33 +35 очень
душно
1017.7 1016.9
ЮЗ 1 16 км 2/2 1050 м +26.1 +19.4 67 +32 +33 очень
душно
1017.7 1016.9
З 1 16 км 2/2 1050 м +23.9 +19.4 76 +29 +29 душно 1018.2 1017.2
Местоположение метеостанции Tampa International Airport: широта 27.9614 долгота -82.5403 высота над уровнем моря 8 м.
В архиве по умолчанию представлена погода в Тампе за последние 1-2 суток. Обновление информации о фактической погоде в базе происходит ежечасно! Архивные данные за месяц целиком и за предыдущие месяцы Вы можете получить, выбрав интересующий диапазон дат из раскрывающегося списка и нажав кнопку "Ввод!".
Внимание! Архив погоды МЕТАР в базе сайта по станциям, не включенным в климатический монитор, хранится не более 60 дней. Нет смысла пытаться выбрать более раннюю дату.
*Определитесь, кто Вы:
Внимание! Время в таблицах - местное (без учета летнего времени). Для получения всемирного времени необходимо вычесть поправку, которая равна -5 ч.
Смотрите также архив погоды в соседних городах и на ближайших метеорологических станциях:
Партнеры нашего сайта:      
Пояснения к столбцам:
  • Ветер - указаны скорость ветра в м/с - средняя за 10 мин, порывы в срок и между сроками (в фигурных скобках) и направление, откуда дует ветер: С - северный,
  • СВ - северо-восточный, В - восточный, ЮВ - юго-восточный, Ю - южный, ЮЗ - юго-западный, З - западный, СЗ - северо-западный.
  • Видимость - горизонтальная дальность видимости в метрах или километрах. При видимости от 1 до 10 км при отсутствии осадков обычно наблюдается дымка, при ухудшении видимости до 1 км и менее - туман. В сухую погоду видимость может ухудшаться дымом, пылью или мглою.
  • Явления - указаны атмосферные явления, наблюдавшиеся в срок или в последний час перед сроком; фигурными скобками обозначены явления, наблюдавшиеся между сроками (за 1-3 часа до срока); квадратными скобками обозначены град или гололедные отложения с указанием их диаметра в мм.
  • Облачность - указаны через наклонную черту общая и нижняя облачность в баллах и высота нижней границы облаков в метрах; квадратными скобками обозначены формы облаков: Ci - перистые, Cs - перисто-слоистые, Cc - перисто-кучевые, Ac - высококучевые, As - высокослоистые, Sc - слоисто-кучевые, Ns - слоисто-дождевые, Cu - кучевые, Cb - кучево-дождевые. Подробнее классификацию облаков см. в Атласе облаков (PDF).
  • T - Температура воздуха - температура, измеренная на высоте 2 м над землей.
  • Td - Температура точки росы - температура, при понижении до которой содержащийся в воздухе водяной пар достигнет насыщения.
  • f - Относительная влажность воздуха - влажноcть воздуха, измеренная на высоте 2 м над землей.
  • Te - Эффективная температура - температура, которую ощущает одетый по сезону человек в тени. Характеристика душности погоды. При расчете учитывается влияние влажности воздуха и скорости ветра на теплоощущения человека.
  • Tes - Эффективная температура на солнце - температура, которую ощущает человек, с поправкой на солнечный нагрев. Характеристика знойности погоды. Зависит от высоты солнца над горизонтом, облачности и скорости ветра. Ночью, в пасмурную погоду, а также при ветре 12 м/с и более поправка равна нулю.
  • P - Атмосферное давление - приведенное к уровню моря атмосферное давление.
  • Po - Атмосферное давление - измеренное на уровне метеостанции атмосферное давление.
  • Tmin - Минимальная температура - минимум температуры воздуха на высоте 2 м над землей.
  • Tmax - Максимальная температура - максимум температуры воздуха на высоте 2 м над землей.
  • R - Количество осадков - Количество выпавших осадков за период времени, мм. При наведении курсора мыши на число - период времени, за который выпало указанное количество осадков.
  • R24 - Количество осадков - Количество выпавших осадков за 24 часа, мм.
  • S - Снежный покров - Высота снежного покрова, см. При наведении курсора мыши на число - состояние снежного покрова и степень покрытия местности в баллах.